BEE022T EGFF-EGHI

Flight info

Callsign BEE022T
Flight time 0h 36m
Altitude 17000
Route LEKCI P4 HAWFA L607 NUCHU L18 NUBRI/N0300F160
Aircraft DH8D/M-SDE2E3FGRY/H

Departure

Time 2026-04-28 13:59
Airport Cardiff International Airport (EGFF)

Arrival

Time 2026-04-28 14:36
Airport Southampton Airport (EGHI)
Time Latitude Longitude Altitude Speed Heading
2026-04-28 13:32 51.39778 -3.33738 231 ft 0 kts 298°
2026-04-28 13:53 51.39772 -3.33718 231 ft 2 kts 298°
2026-04-28 13:53 51.39764 -3.33697 231 ft 2 kts 298°
2026-04-28 13:54 51.39760 -3.33683 231 ft 2 kts 289°
2026-04-28 13:54 51.39758 -3.33660 231 ft 2 kts 261°
2026-04-28 13:54 51.39764 -3.33639 231 ft 2 kts 233°
2026-04-28 13:54 51.39774 -3.33625 231 ft 0 kts 207°
2026-04-28 13:55 51.39776 -3.33623 231 ft 0 kts 206°
2026-04-28 13:56 51.39737 -3.33654 231 ft 13 kts 206°
2026-04-28 13:56 51.39690 -3.33692 231 ft 9 kts 208°
2026-04-28 13:57 51.39649 -3.33794 231 ft 6 kts 314°
2026-04-28 13:57 51.39701 -3.33873 231 ft 8 kts 295°
2026-04-28 13:57 51.39751 -3.34030 231 ft 19 kts 297°
2026-04-28 13:57 51.39793 -3.34168 231 ft 14 kts 296°
2026-04-28 13:58 51.39829 -3.34283 231 ft 17 kts 298°
2026-04-28 13:58 51.39887 -3.34444 231 ft 14 kts 291°
2026-04-28 13:58 51.39935 -3.34626 231 ft 7 kts 284°
2026-04-28 13:58 51.39924 -3.34655 231 ft 8 kts 220°
2026-04-28 13:59 51.39836 -3.34727 231 ft 11 kts 202°
2026-04-28 13:59 51.39735 -3.34564 232 ft 58 kts 116°
2026-04-28 13:59 51.39388 -3.33513 436 ft 134 kts 115°
2026-04-28 13:59 51.38862 -3.32172 1262 ft 159 kts 119°
2026-04-28 14:00 51.38278 -3.30592 2031 ft 172 kts 108°
2026-04-28 14:00 51.37799 -3.28893 3014 ft 173 kts 107°
2026-04-28 14:00 51.37309 -3.27174 3944 ft 176 kts 108°
2026-04-28 14:00 51.36796 -3.25406 4947 ft 177 kts 109°
2026-04-28 14:01 51.36276 -3.23637 5885 ft 180 kts 110°
2026-04-28 14:01 51.35748 -3.21859 6857 ft 181 kts 110°
2026-04-28 14:01 51.35424 -3.19969 7727 ft 179 kts 82°
2026-04-28 14:01 51.35819 -3.18148 8727 ft 177 kts 65°
2026-04-28 14:02 51.36321 -3.16398 9716 ft 177 kts 65°
2026-04-28 14:02 51.36868 -3.14552 10278 ft 200 kts 64°
2026-04-28 14:02 51.37523 -3.12438 10841 ft 216 kts 63°
2026-04-28 14:02 51.38209 -3.10286 11630 ft 221 kts 63°
2026-04-28 14:03 51.38912 -3.08110 12491 ft 222 kts 63°
2026-04-28 14:03 51.39619 -3.05940 13362 ft 223 kts 62°
2026-04-28 14:03 51.40329 -3.03775 14187 ft 223 kts 62°
2026-04-28 14:03 51.41051 -3.01577 14938 ft 226 kts 62°
2026-04-28 14:04 51.41808 -2.99276 15221 ft 244 kts 61°
2026-04-28 14:04 51.42647 -2.96733 15299 ft 264 kts 62°
2026-04-28 14:04 51.43539 -2.94033 15310 ft 282 kts 62°
2026-04-28 14:04 51.44480 -2.91184 15312 ft 294 kts 62°
2026-04-28 14:05 51.45449 -2.88246 15308 ft 303 kts 62°
2026-04-28 14:05 51.46412 -2.85327 16188 ft 282 kts 61°
2026-04-28 14:05 51.47327 -2.82561 15963 ft 298 kts 62°
2026-04-28 14:05 51.48286 -2.79639 16232 ft 290 kts 62°
2026-04-28 14:06 51.49220 -2.76798 16281 ft 294 kts 62°
2026-04-28 14:06 51.50180 -2.73881 16303 ft 297 kts 62°
2026-04-28 14:06 51.51157 -2.70911 16303 ft 300 kts 62°
2026-04-28 14:06 51.52132 -2.67941 16295 ft 301 kts 62°
2026-04-28 14:07 51.53075 -2.64961 16285 ft 302 kts 65°
2026-04-28 14:07 51.53413 -2.61616 16310 ft 306 kts 88°
2026-04-28 14:07 51.53214 -2.58210 16278 ft 306 kts 91°
2026-04-28 14:07 51.52990 -2.54843 16282 ft 307 kts 91°
2026-04-28 14:08 51.52753 -2.51393 16280 ft 308 kts 92°
2026-04-28 14:08 51.52520 -2.48001 16284 ft 310 kts 92°
2026-04-28 14:08 51.52281 -2.44515 16274 ft 311 kts 91°
2026-04-28 14:08 51.52047 -2.41101 16286 ft 310 kts 92°
2026-04-28 14:09 51.51811 -2.37642 16279 ft 309 kts 91°
2026-04-28 14:09 51.51576 -2.34209 16279 ft 310 kts 92°
2026-04-28 14:09 51.51339 -2.30753 16270 ft 311 kts 92°
2026-04-28 14:09 51.51103 -2.27311 16273 ft 312 kts 92°
2026-04-28 14:10 51.50900 -2.24378 16272 ft 311 kts 93°
2026-04-28 14:10 51.50663 -2.20952 16271 ft 312 kts 92°
2026-04-28 14:10 51.50424 -2.17504 16275 ft 311 kts 92°
2026-04-28 14:10 51.50277 -2.15386 16276 ft 311 kts 92°
2026-04-28 14:11 51.50054 -2.12161 16277 ft 311 kts 92°
2026-04-28 14:11 51.49851 -2.09272 16283 ft 311 kts 93°
2026-04-28 14:11 51.49623 -2.06034 16271 ft 313 kts 93°
2026-04-28 14:11 51.49414 -2.03083 16264 ft 310 kts 93°
2026-04-28 14:12 51.49225 -2.00424 16280 ft 310 kts 93°
2026-04-28 14:12 51.49136 -1.99155 16275 ft 308 kts 93°
2026-04-28 14:12 51.49028 -1.97639 16265 ft 307 kts 93°
2026-04-28 14:12 51.48943 -1.96436 16274 ft 305 kts 93°
2026-04-28 14:13 51.48698 -1.92991 16278 ft 306 kts 93°
2026-04-28 14:13 51.48458 -1.89642 16277 ft 306 kts 93°
2026-04-28 14:13 51.48454 -1.89585 16276 ft 306 kts 93°
2026-04-28 14:14 51.48025 -1.83672 15927 ft 268 kts 93°
2026-04-28 14:14 51.47777 -1.80217 15803 ft 253 kts 92°
2026-04-28 14:15 51.47578 -1.77452 15700 ft 242 kts 92°
2026-04-28 14:15 51.47247 -1.74834 15368 ft 242 kts 103°
2026-04-28 14:15 51.46622 -1.72309 14962 ft 243 kts 107°
2026-04-28 14:15 51.45973 -1.69846 14568 ft 242 kts 108°
2026-04-28 14:16 51.45324 -1.67379 14164 ft 241 kts 107°
2026-04-28 14:16 51.44675 -1.64910 13792 ft 240 kts 107°
2026-04-28 14:16 51.44032 -1.62447 13354 ft 239 kts 108°
2026-04-28 14:16 51.43394 -1.60002 12974 ft 238 kts 108°
2026-04-28 14:17 51.42755 -1.57554 12618 ft 236 kts 108°
2026-04-28 14:17 51.42132 -1.55161 12256 ft 234 kts 108°
2026-04-28 14:17 51.41509 -1.52766 11884 ft 234 kts 108°
2026-04-28 14:17 51.40883 -1.50362 11542 ft 233 kts 108°
2026-04-28 14:18 51.40262 -1.47982 11338 ft 233 kts 108°
2026-04-28 14:18 51.39608 -1.45473 11296 ft 255 kts 109°
2026-04-28 14:18 51.38895 -1.42755 11279 ft 270 kts 109°
2026-04-28 14:18 51.38176 -1.40009 11225 ft 258 kts 109°
2026-04-28 14:19 51.37513 -1.37476 11107 ft 237 kts 108°
2026-04-28 14:19 51.36894 -1.35101 10695 ft 231 kts 108°
2026-04-28 14:19 51.36280 -1.32746 10182 ft 228 kts 109°
2026-04-28 14:19 51.35678 -1.30435 9672 ft 226 kts 109°
2026-04-28 14:20 51.35073 -1.28122 9151 ft 225 kts 109°
2026-04-28 14:20 51.34543 -1.26109 8683 ft 225 kts 110°
2026-04-28 14:20 51.33746 -1.24255 8376 ft 224 kts 135°
2026-04-28 14:20 51.32325 -1.23490 8304 ft 232 kts 171°
2026-04-28 14:21 51.30685 -1.23595 8286 ft 246 kts 178°
2026-04-28 14:21 51.28946 -1.23903 8274 ft 255 kts 181°
2026-04-28 14:21 51.27272 -1.24291 8264 ft 259 kts 183°
2026-04-28 14:21 51.25587 -1.24731 8257 ft 264 kts 184°
2026-04-28 14:22 51.23853 -1.25222 8254 ft 266 kts 185°
2026-04-28 14:22 51.21965 -1.25780 8253 ft 267 kts 185°
2026-04-28 14:22 51.20395 -1.26149 8258 ft 269 kts 182°
2026-04-28 14:22 51.18720 -1.26483 8256 ft 272 kts 181°
2026-04-28 14:23 51.16834 -1.26861 8254 ft 274 kts 182°
2026-04-28 14:23 51.14941 -1.27234 8246 ft 277 kts 182°
2026-04-28 14:23 51.13011 -1.27614 8243 ft 278 kts 181°
2026-04-28 14:23 51.11118 -1.27980 8237 ft 278 kts 181°
2026-04-28 14:24 51.09184 -1.28072 8243 ft 274 kts 173°
2026-04-28 14:24 51.07291 -1.27938 8239 ft 274 kts 172°
2026-04-28 14:24 51.05381 -1.27805 8239 ft 274 kts 172°
2026-04-28 14:24 51.03453 -1.27669 8237 ft 275 kts 172°
2026-04-28 14:25 51.01554 -1.27538 8230 ft 271 kts 172°
2026-04-28 14:25 50.99712 -1.27413 8113 ft 254 kts 172°
2026-04-28 14:25 50.97980 -1.27308 7680 ft 251 kts 172°
2026-04-28 14:25 50.96260 -1.27217 7316 ft 243 kts 172°
2026-04-28 14:26 50.94575 -1.27129 6708 ft 243 kts 172°
2026-04-28 14:26 50.92891 -1.27049 6079 ft 243 kts 172°
2026-04-28 14:26 50.91215 -1.26964 5461 ft 243 kts 172°
2026-04-28 14:26 50.89514 -1.26988 4805 ft 249 kts 182°
2026-04-28 14:27 50.87825 -1.27666 4191 ft 252 kts 192°
2026-04-28 14:27 50.86163 -1.28415 3605 ft 252 kts 191°
2026-04-28 14:27 50.84484 -1.29164 3179 ft 244 kts 191°
2026-04-28 14:27 50.82900 -1.29875 3034 ft 234 kts 191°
2026-04-28 14:28 50.81354 -1.30686 2854 ft 232 kts 196°
2026-04-28 14:28 50.79870 -1.31559 2588 ft 221 kts 196°
2026-04-28 14:28 50.78398 -1.32435 2521 ft 233 kts 197°
2026-04-28 14:28 50.76819 -1.33366 2491 ft 248 kts 196°
2026-04-28 14:29 50.75182 -1.34324 2474 ft 257 kts 197°
2026-04-28 14:29 50.73501 -1.35298 2461 ft 255 kts 198°
2026-04-28 14:29 50.71993 -1.36805 2451 ft 262 kts 225°
2026-04-28 14:29 50.71076 -1.39301 2449 ft 265 kts 257°
2026-04-28 14:30 50.71119 -1.42077 2448 ft 254 kts 295°
2026-04-28 14:30 50.72165 -1.44193 2450 ft 237 kts 334°
2026-04-28 14:30 50.73632 -1.45146 2359 ft 225 kts 354°
2026-04-28 14:30 50.75132 -1.45126 2223 ft 208 kts 14°
2026-04-28 14:31 50.76500 -1.44725 2081 ft 193 kts 18°
2026-04-28 14:31 50.77766 -1.44212 1959 ft 183 kts 21°
2026-04-28 14:31 50.78926 -1.43625 1823 ft 173 kts 23°
2026-04-28 14:31 50.80049 -1.43046 1696 ft 164 kts 20°
2026-04-28 14:32 50.81136 -1.42663 1569 ft 154 kts 18°
2026-04-28 14:32 50.82138 -1.42297 1457 ft 142 kts 19°
2026-04-28 14:32 50.83084 -1.41915 1355 ft 136 kts 19°
2026-04-28 14:32 50.83977 -1.41522 1251 ft 132 kts 22°
2026-04-28 14:33 50.84832 -1.41127 1147 ft 117 kts 22°
2026-04-28 14:33 50.85544 -1.40794 1073 ft 101 kts 21°
2026-04-28 14:33 50.86200 -1.40458 997 ft 99 kts 22°
2026-04-28 14:33 50.86863 -1.40103 927 ft 103 kts 21°
2026-04-28 14:34 50.88271 -1.39338 774 ft 113 kts 22°
2026-04-28 14:34 50.89064 -1.38897 698 ft 127 kts 21°
2026-04-28 14:34 50.89642 -1.38581 658 ft 133 kts 18°
2026-04-28 14:35 50.90834 -1.38017 519 ft 135 kts 18°
2026-04-28 14:35 50.91711 -1.37573 438 ft 125 kts 24°
2026-04-28 14:35 50.92504 -1.37094 361 ft 121 kts 24°
2026-04-28 14:35 50.93324 -1.36637 327 ft 131 kts 19°
2026-04-28 14:36 50.94170 -1.36159 127 ft 124 kts 21°
2026-04-28 14:36 50.94886 -1.35760 51 ft 69 kts 19°
2026-04-28 14:36 50.95031 -1.35671 51 ft 4 kts 340°
2026-04-28 14:36 50.95020 -1.35731 51 ft 10 kts 282°
2026-04-28 14:37 50.95047 -1.35847 51 ft 10 kts 290°
2026-04-28 14:37 50.95023 -1.35938 51 ft 11 kts 198°
2026-04-28 14:37 50.94934 -1.35986 51 ft 16 kts 202°
2026-04-28 14:37 50.94901 -1.36080 51 ft 9 kts 286°
2026-04-28 14:38 50.94923 -1.36176 51 ft 9 kts 290°
2026-04-28 14:38 50.94948 -1.36265 51 ft 5 kts 330°
2026-04-28 14:38 50.94977 -1.36251 51 ft 5 kts 21°
2026-04-28 14:38 50.94996 -1.36240 51 ft 0 kts 21°